Home > Weather > Burgdorf > Past weeks

Flag for Germany Weather for the Past 2 Weeks in Burgdorf, Lower Saxony, Germany

Now
54 °F

Scattered clouds.


Feels Like: 54 °F
Forecast: 41 / 53 °F
Wind: 2 mph from North

Location: Celle Airport

Current Time: May 2, 2016 at 10:47:28 AM

Latest Report: May 2, 2016 at 9:20 AM


Visibility: N/A

Pressure: 30.30 "Hg

Humidity: 67%

Dew Point: 43 °F

Location of BurgdorfLocation

Historic Weather in Burgdorf — Graph

°F

Burgdorf Temperature Yesterday

Maximum temperature yesterday: 63 °F (at 3:20 PM)
Minimum temperature yesterday: 41 °F (at 4:20 AM)
Average temperature yesterday: 52 °F

High & Low Weather Summary for the Past Weeks

 TemperatureHumidityPressure
High63 °F (May 1, 3:20 PM)100% (Apr 18, 5:20 AM)30.45 "Hg (Apr 18, 5:20 AM)
Low28 °F (Apr 25, 3:20 AM)29% (Apr 21, 5:20 PM)29.42 "Hg (Apr 26, 12:20 PM)
Average44 °F72%29.97 "Hg
* Reported Apr 17 9:20 AM — May 2 9:20 AM, Burgdorf, Weather by CustomWeather, © 2016

Note: Actual official high and low records may vary slightly from our data, if they occured in-between our weather recording intervals... More about our weather records

Advertising

Burgdorf Weather History for the Previous 24 Hours

Scroll right to see more
 ConditionsComfort  
Time TempWeatherWind HumidityBarometerVisibility
9:20 AM
Mon, May 2
54 °FScattered clouds.2 mph67%30.30 "HgN/A
8:20 AM50 °FScattered clouds.1 mph71%30.30 "Hg5 mi
6:20 AM37 °FFog.No wind100%30.30 "Hg1 mi
5:20 AM37 °FFog.No wind100%30.30 "Hg4 mi
4:20 AM39 °FFog.No wind100%30.33 "HgN/A
3:20 AM41 °FFog.1 mph93%30.33 "HgN/A
2:20 AM43 °FPassing clouds.1 mph93%30.33 "HgN/A
1:20 AM46 °FPassing clouds.2 mph82%30.33 "HgN/A
12:20 AM48 °FPassing clouds.3 mph76%30.33 "HgN/A
11:20 PM
Sun, May 1
50 °FPassing clouds.7 mph76%30.33 "HgN/A
10:20 PM54 °FPassing clouds.8 mph67%30.30 "HgN/A
9:20 PM55 °FPassing clouds.7 mph63%30.30 "HgN/A
8:20 PM59 °FPassing clouds.8 mph55%30.27 "HgN/A
7:20 PM61 °FPassing clouds.9 mph52%30.27 "HgN/A
6:20 PM63 °FScattered clouds.7 mph42%30.24 "HgN/A
5:20 PM63 °FScattered clouds.8 mph39%30.24 "HgN/A
4:20 PM63 °FScattered clouds.6 mph42%30.24 "HgN/A
3:20 PM63 °FScattered clouds.9 mph42%30.24 "HgN/A
2:20 PM61 °FScattered clouds.8 mph48%30.24 "HgN/A
1:20 PM59 °FScattered clouds.9 mph51%30.27 "HgN/A
12:20 PM57 °FScattered clouds.10 mph59%30.27 "HgN/A
11:20 AM54 °FScattered clouds.10 mph67%30.27 "HgN/A
10:20 AM50 °FScattered clouds.10 mph76%30.27 "HgN/A
Weather by CustomWeather, © 2016

See weather overviewHow to use our weather pages